Flag for Germany Weather past 2 weeks in Arnstadt, Thuringia, Germany

Now
70 °F

Partly sunny.


Feels Like: 77 °F
Forecast: 47 / 70 °F
Wind: 9 mph from Northwest

Location: Erfurt-Bindersleben

Current Time: Jun 3, 2015 at 2:13:01 PM

Latest Report: Jun 3, 2015 at 2:00 PM


Visibility: 47 mi

Pressure: 30.11 "Hg

Humidity: 54%

Dew point: 53 °F

Location of ArnstadtLocation

Historic Weather in Arnstadt — Graph

°F

Arnstadt temperature yesterday

Maximum temperature yesterday: 73 °F (at 5:00 PM)
Minimum temperature yesterday: 49 °F (at 1:00 AM)
Average temperature yesterday: 62 °F

Past Weeks' High & Low Weather Summary

 TemperatureHumidityPressure
High73 °F (Jun 2, 5:00 PM)99% (Jun 2, 2:00 AM)30.38 "Hg (Jun 2, 2:00 AM)
Low35 °F (May 22, 5:00 AM)30% (May 19, 3:00 PM)29.74 "Hg (May 19, 1:00 PM)
Average55 °F68%30.03 "Hg
* Reported May 19 1:00 PM — Jun 3 1:00 PM, Arnstadt, Weather by CustomWeather, © 2015

Note: Actual official high and low records may vary slightly from our data, if they occured in-between our weather recording intervals... More about our weather records

Advertising

Arnstadt weather history for previous 24 hours

 ConditionsComfort  
Time TempWeatherWind HumidityBarometerVisibility
1:00 PM
Wed, Jun 3
72 °FScattered clouds.9 mph50%30.09 "Hg43 mi
12:00 PM72 °FScattered clouds.10 mph52%30.09 "Hg43 mi
11:00 AM72 °FScattered clouds.10 mph52%30.06 "Hg43 mi
10:00 AM69 °FPassing clouds.8 mph56%30.06 "Hg43 mi
9:00 AM69 °FPassing clouds.8 mph55%30.04 "Hg47 mi
8:00 AM67 °FPassing clouds.6 mph60%30.02 "Hg47 mi
7:00 AM63 °FPassing clouds.5 mph64%30.03 "Hg47 mi
6:00 AM61 °FPassing clouds.6 mph66%30.01 "Hg47 mi
5:00 AM60 °FPassing clouds.5 mph66%30.01 "Hg47 mi
4:00 AM62 °FPassing clouds.6 mph62%30.01 "Hg43 mi
3:00 AM62 °FPassing clouds.6 mph63%30.00 "Hg43 mi
2:00 AM61 °FPassing clouds.6 mph63%30.01 "Hg43 mi
1:00 AM63 °FPassing clouds.6 mph57%29.99 "Hg43 mi
12:00 AM65 °FPassing clouds.7 mph53%29.98 "Hg43 mi
11:00 PM
Tue, Jun 2
64 °FPassing clouds.6 mph56%29.98 "Hg47 mi
10:00 PM67 °FPassing clouds.6 mph48%29.96 "Hg47 mi
9:00 PM70 °FScattered clouds.8 mph44%29.94 "Hg47 mi
8:00 PM72 °FScattered clouds.9 mph42%29.93 "Hg47 mi
7:00 PM72 °FScattered clouds.12 mph40%29.92 "Hg47 mi
6:00 PM73 °FScattered clouds.12 mph40%29.93 "Hg47 mi
5:00 PM73 °FScattered clouds.12 mph35%29.93 "Hg47 mi
4:00 PM73 °FPartly sunny.14 mph32%29.92 "Hg47 mi
3:00 PM73 °FPartly sunny.12 mph45%29.92 "Hg47 mi
2:00 PM71 °FScattered clouds.10 mph50%29.93 "Hg47 mi
Weather by CustomWeather, © 2015

See weather overviewHow to use our weather pages